QPF
0.00 0.01 0.02 0.00 0.00 0.02 0.00 0.02 0.13 0.15 0.05 0.01 0.02 0.00 0.00 0.00 0.00 0.00 0.01 0.00 0.00 0.00 0.00 0.01 0.00 0.00 0.00 0.00 0.00 0.00 0.00 0.00 0.00 0.00 0.01 0.00 0.00 0.00 0.00 0.00 0.00 0.00 0.00 0.00 0.00 0.00 0.00 0.00 0.00
0.01 0.06 0.09 0.09 0.02 0.02 0.01 0.01 0.09 0.06 0.01 0.00 0.00 0.00 0.00 0.00 0.01 0.02 0.01 0.00 0.00 0.00 0.00 0.00 0.02 0.03 0.00 0.00 0.00 0.00 0.00 0.00 0.00 0.00 0.00 0.00 0.00 0.00 0.00 0.01 0.00 0.00 0.00 0.00 0.00 0.00 0.00 0.00 0.00
0.02 0.03 0.16 0.15 0.02 0.00 0.00 0.00 0.01 0.01 0.00 0.00 0.00 0.00 0.00 0.01 0.01 0.01 0.00 0.00 0.00 0.00 0.00 0.00 0.03 0.01 0.00 0.00 0.00 0.00 0.01 0.00 0.00 0.00 0.00 0.00 0.00 0.00 0.00 0.00 0.00 0.00 0.00 0.00 0.00 0.00 0.00 0.00 0.00
0.01 0.00 0.06 0.03 0.00 0.00 0.00 0.00 0.01 0.01 0.01 0.00 0.00 0.00 0.01 0.01 0.00 0.00 0.00 0.00 0.00 0.00 0.00 0.00 0.00 0.00 0.00 0.00 0.00 0.00 0.00 0.00 0.00 0.00 0.00 0.00 0.00 0.01 0.01 0.00 0.00 0.00 0.00 0.00 0.00 0.00 0.00 0.00 0.00
0.00 0.01 0.01 0.02 0.00 0.00 0.00 0.00 0.00 0.00 0.00 0.00 0.00 0.00 0.01 0.01 0.00 0.00 0.00 0.00 0.00 0.00 0.00 0.01 0.01 0.00 0.00 0.00 0.02 0.01 0.00 0.01 0.00 0.01 0.00 0.00 0.00 0.00 0.00 0.00 0.00 0.00 0.00 0.00 0.00 0.00 0.00 0.00 0.00
0.00 0.00 0.00 0.00 0.00 0.00 0.00 0.00 0.00 0.00 0.00 0.00 0.00 0.00 0.02 0.01 0.00 0.00 0.00 0.00 0.00 0.00 0.00 0.00 0.01 0.03 0.01 0.00 0.00 0.00 0.00 0.00 0.00 0.00 0.00 0.00 0.00 0.00 0.00 0.00 0.00 0.00 0.00 0.00 0.00 0.00 0.00 0.00 0.00
0.00 0.00 0.00 0.00 0.00 0.00 0.00 0.00 0.00 0.00 0.00 0.00 0.00 0.00 0.02 0.01 0.00 0.00 0.00 0.00 0.00 0.00 0.00 0.00 0.00 0.01 0.01 0.00 0.00 0.00 0.00 0.00 0.00 0.00 0.00 0.00 0.00 0.00 0.00 0.00 0.00 0.00 0.00 0.00 0.00 0.00 0.00 0.00 0.00
0.00 0.00 0.00 0.00 0.00 0.00 0.00 0.00 0.00 0.00 0.00 0.00 0.00 0.00 0.00 0.00 0.00 0.00 0.00 0.00 0.00 0.00 0.00 0.02 0.03 0.02 0.01 0.00 0.00 0.00 0.00 0.00 0.00 0.00 0.00 0.00 0.00 0.00 0.00 0.00 0.00 0.00 0.00 0.00 0.00 0.00 0.00 0.00 0.00
0.00 0.00 0.00 0.00 0.00 0.00 0.00 0.00 0.00 0.00 0.00 0.00 0.00 0.00 0.00 0.00 0.00 0.00 0.00 0.00 0.00 0.00 0.00 0.01 0.01 0.01 0.00 0.00 0.00 0.00 0.00 0.00 0.00 0.00 0.00 0.00 0.00 0.00 0.00 0.00 0.01 0.01 0.00 0.00 0.00 0.00 0.00 0.01 0.03
0.00 0.00 0.00 0.00 0.00 0.00 0.00 0.00 0.00 0.00 0.00 0.00 0.00 0.00 0.00 0.00 0.00 0.00 0.00 0.00 0.00 0.00 0.00 0.00 0.02 0.00 0.00 0.00 0.00 0.00 0.00 0.00 0.00 0.00 0.00 0.00 0.00 0.00 0.00 0.00 0.03 0.02 0.03 0.01 0.02 0.00 0.00 0.03 0.04
0.00 0.00 0.00 0.00 0.00 0.00 0.00 0.00 0.00 0.00 0.00 0.00 0.00 0.00 0.00 0.00 0.00 0.00 0.00 0.00 0.00 0.00 0.00 0.00 0.00 0.00 0.00 0.00 0.00 0.00 0.00 0.00 0.00 0.00 0.02 0.04 0.00 0.01 0.04 0.01 0.03 0.09 0.08 0.02 0.04 0.01 0.00 0.00 0.01
0.00 0.00 0.00 0.00 0.00 0.00 0.00 0.00 0.00 0.00 0.00 0.00 0.00 0.00 0.00 0.00 0.00 0.00 0.00 0.00 0.00 0.00 0.00 0.00 0.00 0.00 0.00 0.00 0.00 0.00 0.00 0.00 0.00 0.00 0.09 0.02 0.01 0.03 0.01 0.01 0.03 0.12 0.12 0.06 0.02 0.00 0.00 0.00 0.00
0.00 0.00 0.00 0.00 0.00 0.00 0.00 0.00 0.00 0.00 0.00 0.00 0.00 0.00 0.00 0.00 0.00 0.00 0.00 0.00 0.00 0.00 0.00 0.00 0.00 0.00 0.00 0.00 0.00 0.00 0.00 0.00 0.00 0.01 0.05 0.02 0.00 0.00 0.01 0.01 0.08 0.19 0.13 0.06 0.05 0.02 0.00 0.00 0.01
0.00 0.00 0.00 0.00 0.00 0.00 0.00 0.00 0.00 0.00 0.00 0.00 0.00 0.00 0.00 0.00 0.00 0.00 0.00 0.00 0.00 0.00 0.00 0.00 0.00 0.00 0.00 0.00 0.00 0.01 0.00 0.00 0.03 0.02 0.00 0.01 0.00 0.01 0.03 0.02 0.07 0.05 0.16 0.14 0.06 0.04 0.02 0.00 0.02
0.00 0.00 0.00 0.00 0.00 0.00 0.00 0.00 0.00 0.00 0.00 0.00 0.00 0.00 0.00 0.00 0.00 0.00 0.00 0.00 0.00 0.00 0.00 0.00 0.00 0.00 0.00 0.00 0.00 0.00 0.00 0.00 0.00 0.00 0.01 0.00 0.00 0.01 0.01 0.00 0.00 0.01 0.03 0.03 0.04 0.04 0.02 0.00 0.00
0.00 0.00 0.00 0.00 0.00 0.00 0.00 0.00 0.00 0.00 0.00 0.00 0.00 0.00 0.00 0.00 0.00 0.00 0.00 0.00 0.00 0.00 0.00 0.00 0.00 0.00 0.00 0.00 0.00 0.00 0.00 0.00 0.00 0.00 0.00 0.00 0.00 0.03 0.03 0.00 0.03 0.05 0.01 0.00 0.00 0.01 0.00 0.00 0.00
0.00 0.00 0.00 0.00 0.00 0.00 0.00 0.00 0.00 0.00 0.00 0.00 0.00 0.00 0.00 0.00 0.00 0.00 0.00 0.00 0.00 0.00 0.00 0.00 0.00 0.00 0.00 0.00 0.00 0.00 0.00 0.00 0.00 0.00 0.00 0.00 0.01 0.01 0.02 0.00 0.00 0.00 0.00 0.01 0.02 0.00 0.00 0.00 0.00
0.00 0.00 0.00 0.01 0.01 0.01 0.00 0.00 0.00 0.00 0.00 0.00 0.00 0.00 0.00 0.00 0.00 0.00 0.00 0.00 0.00 0.00 0.00 0.00 0.00 0.00 0.00 0.00 0.00 0.00 0.00 0.00 0.00 0.00 0.00 0.00 0.00 0.00 0.02 0.00 0.00 0.00 0.00 0.00 0.00 0.00 0.00 0.00 0.00
0.00 0.00 0.00 0.01 0.01 0.00 0.00 0.00 0.00 0.00 0.00 0.00 0.00 0.00 0.00 0.00 0.00 0.00 0.00 0.00 0.00 0.00 0.00 0.00 0.00 0.00 0.00 0.00 0.00 0.00 0.00 0.00 0.00 0.00 0.00 0.00 0.00 0.00 0.00 0.00 0.00 0.00 0.00 0.00 0.00 0.00 0.00 0.00 0.00
0.00 0.00 0.00 0.00 0.00 0.00 0.00 0.00 0.00 0.00 0.00 0.00 0.00 0.00 0.00 0.00 0.00 0.00 0.00 0.00 0.00 0.00 0.00 0.00 0.00 0.00 0.00 0.00 0.00 0.00 0.00 0.00 0.00 0.00 0.00 0.00 0.00 0.00 0.00 0.00 0.00 0.00 0.00 0.00 0.00 0.00 0.00 0.00 0.00
0.00 0.00 0.00 0.00 0.00 0.00 0.00 0.00 0.00 0.00 0.00 0.00 0.00 0.00 0.00 0.00 0.00 0.00 0.00 0.00 0.00 0.00 0.00 0.00 0.00 0.00 0.00 0.00 0.00 0.00 0.00 0.00 0.00 0.00 0.00 0.00 0.00 0.00 0.01 0.01 0.02 0.03 0.02 0.03 0.01 0.01 0.06 0.05 0.08
0.00 0.00 0.00 0.00 0.00 0.00 0.00 0.00 0.00 0.00 0.00 0.00 0.00 0.00 0.00 0.00 0.00 0.00 0.00 0.00 0.00 0.00 0.00 0.00 0.00 0.00 0.00 0.00 0.00 0.00 0.00 0.00 0.00 0.00 0.00 0.00 0.00 0.00 0.01 0.01 0.01 0.00 0.08 0.05 0.01 0.00 0.09 0.10 0.01
0.00 0.00 0.00 0.00 0.00 0.00 0.00 0.00 0.00 0.00 0.00 0.00 0.00 0.00 0.00 0.00 0.00 0.00 0.00 0.00 0.00 0.00 0.00 0.00 0.00 0.00 0.00 0.00 0.00 0.00 0.00 0.00 0.00 0.00 0.00 0.00 0.00 0.00 0.00 0.02 0.02 0.01 0.00 0.00 0.00 0.00 0.07 0.10 0.03
0.00 0.00 0.00 0.00 0.00 0.00 0.00 0.00 0.00 0.00 0.00 0.00 0.00 0.00 0.00 0.00 0.00 0.00 0.00 0.00 0.00 0.00 0.00 0.00 0.00 0.00 0.00 0.00 0.00 0.00 0.00 0.00 0.00 0.00 0.00 0.00 0.00 0.00 0.00 0.01 0.02 0.00 0.00 0.00 0.00 0.01 0.06 0.08 0.02
0.00 0.00 0.00 0.00 0.00 0.00 0.00 0.00 0.00 0.00 0.00 0.00 0.00 0.00 0.00 0.00 0.00 0.00 0.00 0.00 0.00 0.00 0.00 0.00 0.00 0.00 0.00 0.00 0.00 0.00 0.00 0.00 0.00 0.00 0.00 0.00 0.00 0.00 0.00 0.00 0.00 0.00 0.00 0.00 0.00 0.02 0.03 0.02 0.00
0.00 0.00 0.00 0.00 0.00 0.00 0.00 0.00 0.00 0.00 0.00 0.00 0.00 0.00 0.00 0.00 0.00 0.00 0.00 0.00 0.00 0.00 0.00 0.00 0.00 0.00 0.00 0.00 0.00 0.00 0.00 0.00 0.00 0.00 0.00 0.00 0.00 0.00 0.00 0.00 0.00 0.00 0.01 0.02 0.02 0.01 0.00 0.00 0.00
0.00 0.00 0.00 0.00 0.00 0.00 0.00 0.00 0.00 0.00 0.00 0.00 0.00 0.00 0.00 0.00 0.00 0.00 0.00 0.00 0.00 0.00 0.00 0.00 0.00 0.00 0.00 0.00 0.00 0.00 0.00 0.00 0.00 0.00 0.00 0.00 0.00 0.00 0.02 0.02 0.01 0.02 0.01 0.01 0.00 0.00 0.00 0.00 0.00
0.00 0.00 0.00 0.00 0.00 0.00 0.00 0.00 0.00 0.00 0.00 0.00 0.00 0.00 0.00 0.00 0.00 0.00 0.00 0.00 0.00 0.00 0.00 0.00 0.00 0.00 0.00 0.00 0.00 0.00 0.00 0.00 0.00 0.00 0.00 0.00 0.00 0.00 0.00 0.00 0.00 0.00 0.00 0.00 0.00 0.00 0.00 0.00 0.00
0.00 0.00 0.00 0.00 0.00 0.00 0.00 0.00 0.00 0.00 0.00 0.00 0.00 0.00 0.00 0.00 0.00 0.00 0.00 0.00 0.00 0.00 0.00 0.00 0.00 0.00 0.00 0.00 0.00 0.00 0.00 0.00 0.00 0.00 0.00 0.00 0.00 0.00 0.00 0.00 0.00 0.00 0.00 0.00 0.00 0.00 0.00 0.00 0.00
0.00 0.00 0.00 0.00 0.00 0.00 0.00 0.00 0.00 0.00 0.00 0.00 0.00 0.00 0.00 0.00 0.00 0.00 0.00 0.00 0.00 0.00 0.00 0.00 0.00 0.00 0.00 0.00 0.00 0.00 0.00 0.00 0.00 0.00 0.00 0.00 0.00 0.00 0.00 0.00 0.00 0.00 0.00 0.00 0.00 0.00 0.00 0.00 0.00
MSLP
1009.63 1009.68 1010.21 1010.62 1011.02 1011.48 1012.29 1012.64 1012.15 1011.56 1011.56 1011.53 1011.48 1012.01 1013.51 1014.39 1014.81 1016.27 1016.61 1016.65 1016.41 1016.49 1016.34 1016.21 1016.19 1016.30 1016.49 1016.59 1016.63 1016.74 1016.87 1016.92 1016.95 1017.05 1017.09 1017.18 1017.38 1017.38 1017.44 1017.50 1017.63 1017.59 1017.78 1017.83 1017.60 1017.67 1017.73 1017.62 1017.72
1009.58 1009.77 1009.88 1010.11 1010.41 1010.93 1011.64 1011.88 1011.59 1011.30 1011.42 1011.58 1012.06 1012.78 1013.42 1014.82 1015.24 1015.94 1016.50 1016.66 1016.44 1016.39 1016.48 1016.51 1016.49 1016.59 1016.75 1016.87 1017.04 1017.15 1017.18 1017.27 1017.28 1017.30 1017.43 1017.48 1017.41 1017.55 1017.71 1017.77 1017.78 1017.87 1017.93 1018.03 1017.83 1017.79 1017.87 1018.02 1018.01
1009.47 1009.62 1010.42 1010.07 1009.80 1009.79 1010.28 1011.02 1010.66 1011.15 1011.05 1011.27 1012.52 1013.29 1014.16 1015.28 1015.83 1016.22 1016.35 1016.61 1016.52 1016.51 1016.44 1016.46 1016.54 1016.80 1016.95 1017.18 1017.28 1017.40 1017.43 1017.58 1017.68 1017.49 1017.64 1017.77 1017.77 1017.82 1017.82 1017.96 1018.06 1018.16 1018.21 1018.32 1018.06 1017.96 1017.88 1018.11 1018.28
1009.52 1010.06 1010.06 1009.53 1008.91 1008.70 1008.81 1009.99 1010.16 1010.74 1011.19 1011.87 1012.89 1014.06 1015.18 1015.81 1015.84 1016.16 1016.41 1016.43 1016.58 1016.63 1016.58 1016.53 1016.74 1016.99 1017.17 1017.39 1017.48 1017.62 1017.80 1017.82 1017.97 1017.88 1017.88 1017.98 1018.02 1018.08 1018.00 1018.00 1018.12 1018.29 1018.33 1018.44 1018.24 1018.07 1017.97 1017.99 1018.14
1009.37 1009.39 1009.40 1009.31 1009.00 1009.02 1009.01 1009.76 1010.27 1011.06 1011.69 1012.37 1012.98 1014.60 1015.51 1016.17 1016.11 1016.53 1016.69 1016.75 1016.73 1016.95 1016.86 1016.85 1016.99 1017.23 1017.35 1017.50 1017.62 1017.86 1017.94 1017.96 1018.07 1018.01 1017.95 1017.99 1018.06 1018.10 1018.10 1018.17 1018.31 1018.37 1018.42 1018.54 1018.37 1018.15 1018.22 1018.25 1018.17
1008.83 1008.87 1009.01 1009.03 1009.16 1009.37 1009.86 1010.16 1010.63 1011.73 1012.13 1012.95 1013.85 1014.75 1016.12 1016.52 1016.51 1016.92 1016.97 1017.00 1016.82 1017.04 1017.07 1017.15 1017.24 1017.41 1017.61 1017.62 1017.66 1017.89 1017.88 1017.87 1017.96 1018.01 1018.08 1018.10 1018.21 1018.15 1018.24 1018.29 1018.20 1018.19 1018.32 1018.42 1018.35 1018.11 1018.19 1018.11 1018.05
1008.61 1008.52 1008.30 1008.75 1009.33 1009.73 1010.20 1010.46 1010.76 1011.67 1012.33 1013.03 1013.67 1014.83 1016.19 1016.55 1016.71 1017.01 1017.11 1017.14 1016.95 1017.14 1017.38 1017.55 1017.60 1017.60 1017.77 1017.76 1017.78 1017.90 1017.98 1017.98 1018.15 1018.23 1018.06 1018.19 1018.25 1018.24 1018.26 1018.23 1018.16 1018.24 1018.27 1018.41 1018.35 1018.04 1017.95 1017.85 1017.94
1007.16 1007.77 1007.95 1008.36 1008.70 1009.49 1009.81 1010.15 1010.91 1011.29 1012.51 1013.11 1013.84 1014.81 1015.70 1016.29 1016.66 1017.06 1017.21 1017.42 1017.47 1017.53 1017.65 1017.85 1017.91 1017.95 1018.00 1017.93 1017.87 1017.90 1018.01 1018.21 1018.39 1018.36 1018.37 1018.48 1018.36 1018.28 1018.40 1018.39 1018.50 1018.49 1018.53 1018.55 1018.44 1018.14 1017.86 1017.67 1017.57
1006.09 1007.43 1007.54 1007.84 1008.01 1009.22 1009.70 1009.91 1011.16 1011.94 1012.45 1013.03 1013.61 1014.31 1015.07 1016.16 1016.60 1017.03 1017.41 1017.66 1017.88 1018.04 1018.12 1017.97 1018.01 1018.06 1018.13 1018.02 1018.11 1018.29 1018.24 1018.41 1018.53 1018.50 1018.60 1018.63 1018.64 1018.54 1018.61 1018.55 1018.53 1018.55 1018.59 1018.59 1018.37 1018.28 1018.08 1017.69 1017.51
1006.22 1006.97 1006.53 1006.65 1007.54 1008.47 1009.34 1009.46 1010.73 1012.21 1013.01 1013.89 1014.25 1015.12 1015.78 1016.18 1016.62 1017.06 1017.55 1017.99 1018.12 1018.11 1018.07 1017.88 1018.11 1018.08 1018.30 1018.08 1018.45 1018.58 1018.58 1018.60 1018.77 1018.74 1018.71 1018.88 1018.69 1018.52 1018.34 1018.44 1018.51 1018.51 1018.65 1018.37 1018.22 1018.12 1017.94 1017.58 1017.40
1005.98 1006.16 1006.07 1006.62 1006.81 1007.90 1009.10 1010.05 1010.88 1012.24 1013.31 1013.29 1013.78 1015.00 1015.77 1016.37 1016.89 1017.30 1017.73 1017.96 1017.95 1017.93 1018.05 1018.10 1018.09 1018.27 1018.59 1018.51 1018.56 1018.70 1018.76 1018.60 1018.70 1018.70 1018.65 1018.60 1018.35 1018.19 1018.25 1018.54 1018.87 1018.72 1018.51 1018.26 1017.99 1017.89 1017.96 1017.63 1017.16
1005.40 1005.50 1005.47 1006.27 1006.83 1008.21 1009.14 1010.16 1011.47 1011.96 1012.55 1013.60 1014.21 1015.11 1015.92 1016.47 1016.90 1017.28 1017.74 1018.03 1018.03 1018.11 1018.17 1018.18 1018.25 1018.64 1018.83 1018.78 1018.67 1018.53 1018.58 1018.75 1018.91 1018.97 1018.92 1018.71 1018.55 1018.44 1018.55 1018.78 1018.66 1018.53 1018.05 1017.91 1018.09 1017.97 1017.43 1017.24 1017.14
1005.40 1005.66 1006.11 1006.46 1007.20 1008.31 1009.56 1010.76 1011.66 1012.77 1013.52 1014.22 1014.85 1015.55 1016.02 1016.42 1016.88 1017.33 1017.78 1017.98 1017.99 1018.22 1018.21 1018.27 1018.46 1018.84 1018.60 1018.90 1019.03 1018.86 1018.78 1018.98 1018.87 1018.74 1018.41 1018.16 1018.18 1018.30 1018.43 1018.34 1018.49 1018.36 1017.95 1017.81 1018.06 1018.02 1017.76 1017.49 1017.41
1005.54 1005.77 1006.61 1007.00 1007.87 1009.10 1010.01 1011.61 1011.97 1013.71 1014.05 1014.68 1015.26 1015.67 1016.03 1016.36 1016.79 1017.37 1017.74 1017.94 1017.98 1018.19 1018.27 1018.22 1018.62 1018.76 1018.62 1018.98 1018.98 1018.98 1018.88 1018.78 1018.51 1018.37 1018.14 1018.00 1017.98 1018.10 1018.28 1018.28 1018.66 1018.60 1018.10 1017.85 1017.65 1018.23 1017.60 1017.18 1017.08
1005.85 1006.41 1007.17 1007.60 1008.13 1009.39 1009.79 1011.89 1012.65 1013.45 1014.10 1014.71 1015.17 1015.47 1015.87 1016.16 1016.58 1016.88 1017.24 1017.61 1017.79 1018.11 1018.21 1018.17 1018.38 1018.54 1018.35 1018.44 1018.49 1018.60 1018.69 1018.33 1018.12 1018.23 1018.36 1018.19 1017.89 1018.05 1018.09 1018.21 1018.33 1018.19 1018.19 1017.80 1017.64 1017.45 1017.08 1016.88 1016.34
1006.91 1007.65 1008.12 1008.31 1008.19 1009.23 1009.61 1012.39 1013.15 1013.65 1013.84 1014.50 1014.80 1015.07 1015.35 1015.69 1015.94 1016.30 1016.74 1017.08 1017.46 1017.72 1018.07 1017.98 1018.07 1018.45 1018.44 1018.23 1018.42 1018.64 1018.53 1018.33 1018.35 1018.25 1018.14 1018.02 1017.90 1017.93 1017.93 1018.01 1018.01 1017.92 1017.89 1017.63 1017.42 1017.31 1016.98 1016.84 1016.62
1008.10 1008.65 1008.71 1008.23 1008.04 1008.70 1009.72 1012.04 1013.21 1013.58 1013.81 1013.92 1014.08 1014.39 1014.76 1015.16 1015.47 1015.74 1016.11 1016.51 1016.96 1017.33 1017.68 1017.91 1017.91 1018.23 1018.51 1018.32 1018.54 1018.62 1018.39 1018.31 1018.09 1018.02 1018.03 1017.78 1017.86 1017.81 1017.82 1017.91 1017.75 1017.66 1017.69 1017.37 1017.33 1017.16 1017.12 1017.02 1016.95
1008.08 1008.55 1008.80 1008.23 1007.80 1008.39 1009.63 1010.87 1012.27 1013.06 1013.35 1013.33 1013.57 1013.86 1014.09 1014.39 1014.60 1015.02 1015.54 1016.04 1016.39 1016.99 1017.34 1017.49 1017.77 1017.98 1018.21 1018.32 1018.59 1018.62 1018.60 1018.37 1018.03 1017.96 1018.13 1017.94 1017.96 1017.60 1017.56 1017.61 1017.47 1017.18 1017.31 1017.41 1017.52 1017.49 1017.29 1017.26 1017.25
1006.65 1007.29 1008.15 1008.04 1007.63 1008.38 1009.48 1010.43 1011.49 1012.30 1012.81 1012.99 1013.06 1013.39 1013.61 1013.60 1013.85 1014.39 1014.95 1015.55 1016.10 1016.50 1016.94 1017.12 1017.55 1017.68 1018.18 1018.53 1018.84 1018.94 1018.91 1018.49 1018.33 1018.10 1017.75 1017.64 1017.63 1017.39 1017.30 1017.32 1017.14 1017.11 1017.44 1017.44 1017.40 1017.43 1017.52 1017.48 1017.23
1006.34 1006.57 1007.27 1007.72 1007.31 1008.69 1009.66 1010.69 1011.03 1011.29 1011.60 1011.73 1012.03 1012.53 1012.76 1013.06 1013.62 1014.04 1014.54 1015.03 1015.48 1015.99 1016.40 1016.86 1017.14 1017.40 1017.80 1017.98 1018.22 1018.43 1018.54 1018.42 1018.35 1018.09 1017.88 1017.64 1017.55 1017.27 1016.91 1016.96 1017.21 1017.05 1017.21 1017.22 1017.12 1017.27 1017.58 1017.58 1017.28
1005.28 1005.77 1006.11 1006.82 1007.47 1008.10 1009.39 1010.65 1011.06 1010.67 1011.07 1011.57 1011.67 1011.83 1011.87 1012.21 1012.90 1013.52 1014.05 1014.54 1014.98 1015.40 1015.83 1016.30 1016.69 1017.02 1017.37 1017.65 1017.99 1018.31 1018.53 1018.44 1018.46 1018.25 1017.88 1017.47 1017.40 1017.01 1016.83 1017.01 1017.14 1017.24 1017.27 1017.31 1017.27 1017.17 1017.35 1017.45 1017.37
1004.58 1004.33 1005.18 1006.19 1007.65 1008.23 1008.63 1010.16 1009.83 1009.82 1010.06 1010.50 1010.85 1011.08 1011.19 1011.50 1012.07 1012.76 1013.34 1013.87 1014.22 1014.59 1015.16 1015.66 1016.09 1016.57 1016.89 1017.20 1017.61 1018.06 1018.40 1018.56 1018.21 1018.03 1017.73 1017.33 1016.93 1016.79 1016.73 1016.84 1017.07 1017.21 1017.41 1017.45 1017.38 1017.30 1017.28 1017.30 1017.45
1003.37 1003.76 1004.56 1005.70 1007.10 1008.39 1008.55 1009.12 1007.95 1008.75 1009.22 1009.12 1009.47 1009.89 1010.00 1010.37 1010.95 1011.77 1012.32 1012.85 1013.31 1014.00 1014.53 1015.01 1015.57 1016.04 1016.35 1016.76 1016.99 1017.52 1018.02 1018.05 1017.84 1017.72 1017.70 1017.41 1017.03 1016.70 1016.58 1016.64 1017.01 1017.25 1017.35 1017.25 1017.24 1017.17 1017.12 1017.24 1017.33
1002.94 1003.87 1004.15 1005.23 1006.98 1008.73 1007.43 1007.50 1007.36 1006.90 1006.16 1007.09 1007.78 1008.44 1008.83 1009.42 1010.11 1010.71 1011.35 1012.15 1012.74 1013.33 1013.86 1014.35 1014.87 1015.28 1015.75 1016.18 1016.59 1016.89 1017.39 1017.86 1018.04 1017.77 1017.59 1017.30 1017.14 1016.93 1016.62 1016.80 1016.82 1016.83 1016.99 1017.10 1017.13 1017.11 1017.04 1017.17 1017.20
1003.14 1004.09 1005.41 1006.44 1007.35 1006.29 1005.99 1006.55 1005.21 1004.23 1004.63 1004.98 1006.10 1007.04 1007.71 1008.31 1009.25 1010.07 1010.90 1011.46 1011.98 1012.43 1012.94 1013.57 1014.06 1014.70 1015.23 1015.74 1016.10 1016.35 1016.75 1017.30 1017.55 1017.50 1017.39 1017.31 1017.03 1016.90 1016.87 1016.79 1016.66 1016.64 1016.52 1016.79 1016.70 1016.88 1016.92 1017.12 1017.32
1002.38 1003.28 1004.57 1005.87 1006.32 1005.68 1005.34 1004.55 1002.42 1001.85 1002.71 1003.58 1004.39 1005.03 1006.42 1007.56 1008.22 1008.98 1009.69 1010.34 1010.86 1011.44 1012.04 1012.69 1013.44 1014.14 1014.64 1015.10 1015.39 1015.73 1016.18 1016.57 1016.76 1016.96 1016.96 1016.85 1016.79 1016.59 1016.39 1016.28 1016.12 1016.26 1016.50 1016.57 1016.61 1016.98 1017.27 1017.31 1017.44
1001.47 1002.65 1002.62 1004.63 1005.84 1005.95 1004.81 1003.04 1001.13 1001.10 1002.36 1003.22 1004.25 1005.19 1005.72 1006.54 1007.30 1007.91 1008.67 1009.25 1009.90 1010.51 1011.11 1011.80 1012.68 1013.32 1013.84 1014.29 1014.76 1015.16 1015.50 1015.84 1016.22 1016.48 1016.55 1016.59 1016.41 1016.23 1016.18 1016.06 1016.33 1016.33 1016.49 1016.80 1017.37 1017.58 1017.73 1017.77 1017.86
1001.03 1001.29 1002.94 1004.57 1005.87 1006.16 1004.92 1003.45 1002.58 1002.24 1002.11 1002.73 1003.68 1004.03 1004.62 1005.53 1006.31 1007.06 1007.67 1008.22 1008.83 1009.38 1010.21 1011.18 1011.83 1012.40 1012.93 1013.57 1014.04 1014.38 1014.69 1015.16 1015.59 1015.90 1016.14 1016.13 1015.99 1016.20 1016.37 1016.53 1016.72 1016.98 1017.25 1017.38 1017.64 1018.02 1018.22 1018.15 1018.29
1000.94 1001.41 1002.65 1004.01 1005.20 1005.79 1005.33 1003.76 1001.10 1001.11 1001.34 1001.48 1002.14 1002.59 1003.51 1004.31 1005.09 1005.96 1006.61 1007.24 1007.88 1008.65 1009.49 1010.28 1011.10 1011.74 1012.33 1012.80 1013.21 1013.61 1014.14 1014.67 1015.08 1015.44 1015.65 1015.95 1016.22 1016.49 1016.73 1017.03 1017.44 1017.81 1018.07 1018.27 1018.20 1018.36 1018.42 1018.46 1018.43
1000.07 1000.91 1002.00 1003.93 1005.25 1005.35 1004.44 1002.35 999.72 1000.05 1000.52 1001.20 1001.20 1001.77 1002.40 1002.95 1003.82 1004.86 1005.65 1006.38 1007.21 1007.75 1008.54 1009.25 1010.10 1010.73 1011.21 1011.72 1012.32 1012.89 1013.61 1014.25 1014.80 1015.12 1015.49 1015.78 1016.28 1016.66 1017.14 1017.73 1018.24 1018.65 1018.76 1018.70 1018.76 1018.90 1018.81 1018.67 1018.57
Thickness
5825 5824 5820 5807 5779 5775 5750 5756 5767 5778 5779 5790 5797 5790 5770 5770 5767 5749 5771 5774 5776 5777 5779 5779 5781 5780 5778 5778 5778 5776 5775 5775 5775 5773 5773 5772 5770 5769 5769 5767 5764 5763 5759 5758 5760 5757 5755 5757 5755
5826 5825 5816 5802 5778 5758 5758 5772 5766 5783 5788 5796 5793 5786 5777 5762 5774 5770 5770 5775 5777 5779 5779 5778 5780 5779 5778 5776 5775 5774 5774 5774 5774 5773 5772 5771 5772 5770 5767 5765 5764 5762 5760 5757 5758 5758 5756 5754 5753
5828 5823 5795 5790 5782 5765 5766 5781 5790 5790 5803 5799 5783 5787 5777 5763 5771 5771 5777 5777 5779 5780 5781 5781 5780 5779 5778 5774 5774 5774 5774 5772 5771 5773 5771 5769 5770 5769 5769 5766 5764 5761 5758 5755 5758 5759 5758 5755 5751
5821 5810 5802 5789 5783 5799 5798 5796 5802 5794 5801 5797 5786 5770 5774 5775 5775 5776 5779 5779 5781 5779 5780 5781 5778 5778 5776 5774 5774 5773 5771 5771 5769 5769 5769 5769 5768 5767 5768 5768 5765 5762 5759 5756 5758 5760 5760 5759 5755
5821 5808 5785 5782 5786 5797 5808 5806 5803 5788 5788 5789 5791 5768 5768 5774 5780 5777 5778 5779 5779 5778 5779 5779 5777 5776 5776 5775 5774 5771 5770 5770 5768 5770 5771 5771 5770 5769 5768 5767 5765 5763 5760 5758 5759 5762 5759 5759 5757
5807 5808 5781 5774 5783 5793 5797 5802 5795 5783 5785 5783 5778 5772 5765 5775 5777 5774 5776 5778 5779 5778 5778 5777 5776 5775 5774 5773 5773 5772 5772 5772 5771 5771 5771 5771 5769 5770 5769 5768 5768 5767 5764 5761 5760 5763 5759 5760 5759
5803 5795 5785 5786 5778 5783 5789 5803 5791 5785 5783 5780 5787 5766 5767 5772 5776 5775 5775 5777 5778 5777 5776 5774 5774 5774 5771 5772 5773 5773 5772 5772 5770 5769 5771 5769 5768 5768 5767 5767 5767 5765 5764 5761 5758 5761 5760 5761 5759
5824 5807 5793 5791 5784 5783 5803 5805 5803 5795 5782 5795 5789 5765 5765 5773 5777 5776 5776 5774 5776 5775 5775 5773 5773 5772 5772 5773 5773 5773 5771 5768 5767 5768 5766 5765 5765 5767 5766 5764 5764 5763 5760 5759 5758 5758 5759 5760 5760
5849 5792 5786 5791 5796 5790 5806 5802 5805 5802 5789 5792 5790 5783 5783 5778 5777 5775 5771 5770 5770 5772 5771 5772 5772 5772 5773 5773 5771 5769 5769 5766 5766 5765 5764 5762 5763 5765 5763 5763 5764 5761 5758 5757 5755 5753 5752 5755 5756
5821 5790 5804 5823 5817 5807 5810 5810 5803 5788 5781 5776 5777 5779 5779 5778 5775 5770 5766 5762 5766 5768 5771 5774 5772 5772 5769 5771 5769 5768 5766 5767 5765 5765 5764 5760 5762 5766 5765 5763 5759 5755 5755 5757 5754 5752 5749 5755 5759
5821 5801 5826 5825 5832 5826 5811 5805 5808 5787 5773 5782 5778 5775 5776 5772 5770 5767 5765 5765 5768 5771 5771 5772 5771 5770 5768 5770 5769 5766 5766 5768 5766 5766 5766 5764 5765 5767 5766 5759 5755 5755 5759 5758 5758 5755 5755 5757 5760
5820 5835 5839 5834 5834 5821 5812 5813 5795 5797 5791 5790 5785 5779 5773 5768 5766 5766 5764 5765 5768 5768 5768 5771 5769 5768 5766 5768 5769 5768 5769 5768 5765 5765 5765 5765 5766 5766 5765 5761 5760 5761 5762 5763 5759 5759 5761 5762 5760
5830 5834 5837 5839 5834 5826 5820 5804 5796 5786 5790 5787 5781 5775 5771 5769 5767 5767 5766 5768 5769 5766 5768 5769 5767 5765 5768 5769 5767 5767 5768 5768 5768 5769 5770 5771 5770 5767 5764 5762 5759 5758 5761 5763 5760 5760 5760 5762 5761
5841 5837 5829 5832 5826 5817 5803 5794 5798 5783 5788 5780 5775 5772 5772 5770 5769 5766 5765 5765 5766 5768 5768 5770 5768 5767 5770 5769 5769 5769 5771 5770 5771 5775 5775 5774 5772 5769 5767 5766 5762 5762 5763 5765 5765 5758 5764 5767 5764
5840 5820 5822 5823 5822 5811 5817 5785 5781 5790 5788 5778 5775 5776 5775 5774 5773 5770 5770 5768 5770 5770 5771 5771 5771 5771 5773 5774 5774 5773 5773 5775 5777 5776 5774 5771 5772 5770 5769 5768 5766 5764 5763 5766 5767 5769 5770 5770 5771
5816 5804 5786 5816 5820 5816 5812 5762 5784 5793 5789 5780 5782 5781 5781 5779 5779 5779 5777 5776 5776 5775 5773 5775 5776 5774 5775 5777 5776 5775 5775 5776 5775 5777 5775 5769 5767 5767 5769 5768 5768 5769 5768 5769 5769 5769 5769 5768 5766
5790 5773 5781 5802 5827 5817 5806 5772 5786 5793 5789 5785 5790 5789 5788 5786 5786 5787 5787 5785 5784 5782 5779 5777 5779 5778 5778 5778 5777 5776 5777 5779 5780 5779 5775 5773 5769 5769 5770 5769 5769 5769 5769 5770 5770 5769 5767 5763 5760
5782 5783 5779 5790 5819 5819 5800 5789 5793 5795 5792 5792 5793 5794 5794 5793 5793 5796 5794 5793 5792 5788 5786 5785 5782 5782 5782 5781 5778 5778 5778 5779 5781 5781 5778 5776 5773 5774 5773 5772 5773 5775 5774 5771 5766 5763 5762 5760 5757
5817 5801 5786 5800 5825 5814 5799 5795 5796 5799 5796 5795 5796 5796 5797 5800 5805 5804 5801 5799 5796 5794 5792 5792 5787 5787 5784 5782 5777 5776 5776 5780 5781 5781 5782 5782 5780 5778 5776 5776 5776 5773 5771 5769 5767 5762 5757 5754 5755
5810 5805 5794 5807 5828 5809 5796 5789 5806 5808 5805 5808 5805 5804 5804 5806 5806 5806 5805 5804 5802 5799 5799 5796 5794 5792 5791 5788 5784 5782 5781 5782 5781 5782 5782 5782 5781 5779 5782 5780 5777 5777 5772 5769 5768 5764 5756 5753 5753
5814 5802 5805 5804 5818 5819 5804 5787 5795 5814 5814 5811 5812 5814 5815 5813 5809 5809 5808 5807 5807 5805 5803 5802 5799 5797 5796 5792 5787 5784 5783 5783 5781 5782 5784 5785 5782 5782 5783 5778 5776 5773 5770 5766 5764 5762 5757 5749 5747
5795 5834 5828 5819 5800 5772 5814 5756 5794 5813 5810 5813 5814 5816 5818 5819 5821 5817 5814 5813 5815 5814 5813 5809 5805 5802 5800 5797 5791 5787 5782 5779 5784 5785 5786 5787 5785 5784 5783 5780 5776 5771 5767 5764 5762 5760 5756 5752 5744
5825 5841 5833 5828 5810 5800 5799 5776 5803 5816 5806 5816 5821 5825 5830 5830 5831 5825 5823 5824 5825 5822 5818 5815 5810 5807 5806 5802 5800 5794 5787 5788 5790 5790 5788 5787 5788 5788 5786 5784 5777 5772 5768 5766 5763 5759 5756 5752 5746
5847 5835 5830 5829 5799 5758 5805 5794 5791 5816 5835 5834 5835 5838 5841 5840 5840 5838 5837 5834 5830 5829 5826 5822 5817 5815 5812 5808 5804 5800 5795 5790 5787 5789 5788 5790 5789 5788 5786 5781 5778 5774 5770 5766 5761 5760 5756 5750 5745
5829 5810 5770 5767 5759 5775 5806 5800 5813 5852 5860 5858 5848 5850 5851 5851 5847 5844 5839 5836 5835 5834 5833 5829 5825 5819 5817 5812 5809 5807 5802 5796 5793 5792 5791 5789 5789 5787 5785 5782 5780 5776 5772 5766 5762 5758 5754 5748 5740
5814 5820 5766 5756 5765 5791 5820 5799 5839 5879 5882 5878 5870 5871 5865 5856 5857 5853 5849 5847 5845 5844 5841 5837 5831 5825 5823 5818 5816 5813 5809 5804 5801 5797 5795 5793 5792 5791 5789 5785 5781 5776 5769 5763 5759 5753 5745 5740 5732
5824 5804 5837 5798 5800 5789 5809 5841 5874 5881 5874 5874 5865 5865 5863 5862 5862 5861 5860 5859 5855 5852 5849 5846 5838 5833 5829 5825 5821 5818 5815 5810 5805 5801 5798 5795 5795 5794 5789 5783 5778 5772 5764 5757 5750 5742 5736 5730 5723
5827 5847 5813 5789 5774 5776 5793 5816 5823 5845 5862 5869 5864 5868 5871 5871 5869 5867 5867 5866 5865 5863 5859 5852 5846 5840 5836 5831 5827 5824 5821 5816 5811 5806 5799 5797 5797 5791 5785 5779 5773 5764 5756 5750 5743 5734 5726 5720 5713
5816 5814 5814 5806 5791 5766 5764 5792 5853 5864 5870 5872 5876 5883 5880 5878 5877 5875 5874 5874 5873 5869 5863 5856 5851 5845 5839 5836 5833 5829 5824 5818 5814 5808 5803 5798 5794 5787 5779 5772 5763 5753 5745 5737 5732 5725 5718 5713 5707
5834 5824 5816 5779 5788 5784 5782 5798 5881 5880 5878 5879 5883 5889 5890 5892 5888 5884 5882 5880 5876 5874 5868 5862 5856 5852 5848 5844 5839 5833 5826 5820 5813 5808 5803 5798 5790 5785 5774 5764 5753 5743 5736 5731 5723 5716 5710 5706 5700